Regional Weather Roundup
Issued by NWS

Home | Current Version | Previous Version | Text Only | Print | Product List | Glossary Off
Versions: 1 2 3 4 5 6 7 8 9 10 11 12 13 14 15 16 17 18 19 20 21 22 23 24 25 26 27 28 29 30 31 32 33 34 35 36 37 38 39 40 41 42 43 44 45 46 47 48 49 50

000
ASUS43 KMPX 190410
RWRMN
WEATHER ROUNDUP FOR MINNESOTA
NATIONAL WEATHER SERVICE TWIN CITIES/CHANHASSEN MN
1000 PM CST SUN FEB 18 2018


NOTE: "FAIR" INDICATES FEW OR NO CLOUDS BELOW 12,000 FEET WITH NO
SIGNIFICANT WEATHER AND/OR OBSTRUCTIONS TO VISIBILITY. N/A MEANS
CURRENT SKY AND/OR WEATHER CONDITIONS ARE NOT AVAILABLE.

MNZ060>063-068>070-190500-
   Twin Cities Metro

CITY           SKY/WX    TMP DP  RH WIND       PRES   REMARKS
TWIN CITIES    FAIR      34  30  85 CALM      29.70R
ST PAUL        FAIR      31  28  89 CALM      29.71R
CRYSTAL        FAIR      29  22  75 N12       29.71R WCI  19
BLAINE         FAIR      28  25  86 N9        29.72R WCI  20
LAKEVILLE      FAIR      28  28 100 CALM      29.69R
EDEN PRAIRIE   FAIR      32  27  81 N6        29.68R WCI  26
SOUTH ST PAUL  FAIR      32  27  83 CALM      29.70R
LAKE ELMO      FAIR      32  30  93 CALM      29.70R
$$
MNZ001>005-007-008-013>017-022>024-027-028-190500-
   Northwest Minnesota

CITY           SKY/WX    TMP DP  RH WIND       PRES   REMARKS
BEMIDJI        FAIR       8   4  84 N9        29.92R WCI  -6
HALLOCK        FAIR       7  -6  56 N15       30.10R WCI -11
WARROAD        FAIR       3   0  85 N7        30.05R WCI  -9
THIEF RVR FALL FAIR       7   1  76 NE16      30.02R WCI -11
CROOKSTON      FAIR       7   1  78 N12       30.05R WCI  -9
FOSSTON        FAIR       3   0  85 N13       29.96S WCI -14
DETROIT LAKES  FAIR      12   9  85 N12G18    29.88S WCI  -2
MOORHEAD       FAIR       9   3  78 N23G29    29.97R WCI -12
PARK RAPIDS    LGT SNOW  11   6  81 N15G30    29.86R WCI  -5
MAHNOMEN       FAIR       7   2  82 N17       29.91F WCI -12
$$
MNZ006-009>011-018-025>026-190500-
   North Central Minnesota

CITY           SKY/WX    TMP DP  RH WIND       PRES   REMARKS
BAUDETTE       FAIR       4  -1  80 N12       30.00R WCI -12
FLAG ISLAND    FAIR      -2  -8  78 CALM      30.05R
INTL FALLS     MOCLDY     6   1  80 N8        29.97R WCI  -7
WASKISH        FAIR       7   3  85 N7        29.97R WCI  -5
BIG FORK       FLURRIES   9   3  78 N7        29.90R WCI  -3
LONGVILLE      FLURRIES  10   7  85 N6        29.86S WCI   1
GRAND RAPIDS   FLURRIES  11   7  84 N13       29.87S WCI  -4
CRANE LAKE     FAIR       3   1  92 CALM      29.96S
ORR            FAIR       5   0  78 CALM      29.89R
COOK             N/A      7   3  85 N3        29.90R
WALKER         CLOUDY     9   5  81 N13G18    29.88R WCI  -6
$$
MNZ012-019>021-037-190500-
   Northeast Minnesota

CITY           SKY/WX    TMP DP  RH WIND       PRES   REMARKS
DULUTH         CLOUDY    17  13  84 N14       29.79R WCI   3
ELY            CLOUDY     7   3  85 NE7       29.86F WCI  -5
HIBBING        MIX PCPN   9   4  80 N13       29.85R WCI  -7
EVELETH        FLURRIES N/A N/A N/A NE9       29.85F
DULUTH HARBOR  LGT SNOW  25  21  86 NE16      29.85R WCI  12
TWO HARBORS    FAIR      21  16  79 N6        29.81R WCI  14
GRAND MARAIS     N/A     15   6  67 N16G26    29.87R WCI  -1
G MARAIS ARPRT FLURRIES   7   0  72 N16G23    29.80R WCI -11
$$
MNZ029>031-032-039>041-046>048-054>057-064-190500-
   West Central Minnesota

CITY           SKY/WX    TMP DP  RH WIND       PRES   REMARKS
FERGUS FALLS   FAIR      12   7  79 N10G21    29.91R WCI  -1
WHEATON        CLOUDY    12   7  79 NW18G28   29.93R WCI  -5
MORRIS         MOCLDY    19  12  73 N15       29.85R WCI   5
ALEXANDRIA     CLOUDY    19  13  77 N21G28    29.81R WCI   3
ELBOW LAKE     FAIR      17  12  78 N13G20    29.86R WCI   4
WADENA         CLOUDY    14   9  79 N15G22    29.85R WCI  -1
GLENWOOD       FAIR      18  14  86 N16       29.80R WCI   3
APPLETON       PTCLDY    19  12  73 N13       29.86R WCI   7
BENSON         PTCLDY    21  12  68 NE13      29.85R WCI   9
ORTONVILLE     CLOUDY    16   9  73 N17       29.88R WCI   0
MADISON        CLOUDY    21  16  79 NW21G29   29.88R WCI   6
WILLMAR        FAIR      21  16  79 N10       29.81R WCI  10
$$
MNZ033>034-036-042>043-049>051-058-059-190500-
   Central Minnesota

CITY           SKY/WX    TMP DP  RH WIND       PRES   REMARKS
ST CLOUD       CLOUDY    23  18  81 N10       29.77R WCI  12
SAUK CENTRE    FAIR      19  14  80 N10       29.81R WCI   7
PAYNESVILLE    MOCLDY    22  18  85 N10G16    29.78R WCI  11
AITKIN         CLOUDY    16  10  79 N13G18    29.80S WCI   2
PINE RIVER     FLURRIES  10   7  85 N13G18    29.87S WCI  -5
BRAINERD       CLOUDY    19  11  70 N15       29.79F WCI   5
STAPLES        CLOUDY    14   9  79 N8        29.84R WCI   3
LONG PRAIRIE   CLOUDY    19  14  79 NW13G22   29.79R WCI   7
LITTLE FALLS   CLOUDY    21  12  68 N8        29.80R WCI  12
LITCHFIELD     FAIR      25  19  80 N10G16    29.76R WCI  15
BUFFALO        FAIR      26  21  82 N9        29.74R WCI  16
MAPLE LAKE     MOCLDY    26  22  85 N16       29.76R WCI  13
HUTCHINSON     FAIR      25  20  83 N12G20    29.75R WCI  14
$$
MNZ037-044-045-052-053-190500-
   East Central Minnesota

CITY           SKY/WX    TMP DP  RH WIND       PRES   REMARKS
PRINCETON      CLOUDY    27  21  80 N13       29.76R WCI  16
MORA           LGT RAIN  25  19  80 N5        29.76S WCI  19
CAMBRIDGE      CLOUDY    27  19  74 N7G16     29.75R WCI  19
RUSH CITY      CLOUDY    26  22  85 N9G20     29.74R WCI  16
MOOSE LAKE     CLOUDY    21  18  86 N15       29.77S WCI   8
HINCKLEY       FLURRIES  27  23  86 N10G18    29.76R WCI  17
CLOQUET        CLOUDY    18  12  79 N9G17     29.81R WCI   6
MCGREGOR       CLOUDY    19  14  79 N12G18    29.80F WCI   7
$$
MNZ071>073-080-081-089-090-097-098-190500-
   Southwest Minnesota

CITY           SKY/WX    TMP DP  RH WIND       PRES   REMARKS
MONTEVIDEO     PTCLDY    21  16  79 NE15G21   29.83R WCI   8
GRANITE FALLS  PTCLDY    24  17  74 NW15      29.83R WCI  11
CANBY          PTCLDY    19  14  82 NW17G23   29.87R WCI   4
MARSHALL       PTCLDY    20  14  77 N20       29.80R WCI   4
REDWOOD FALLS  PTCLDY    23  17  78 N10G24    29.77R WCI  12
OLIVIA         MOCLDY    23  18  80 N10       29.78R WCI  12
PIPESTONE      PTCLDY    19  16  86 N14G23    29.75R WCI   6
WINDOM         CLEAR     25  10  54 NW25      29.71R WCI   9
WORTHINGTON    CLEAR     23  19  85 N22G28    29.71R WCI   8
JACKSON        CLEAR     28  23  80 N13G25    29.70R WCI  18
TRACY          PTCLDY    23  18  80 N20G25    29.77S WCI   8
SLAYTON        PTCLDY    22  17  83 N25G31    29.73F WCI   5
$$
MNZ065>067-074>077-082>085-091>093-190500-
   South Central Minnesota

CITY           SKY/WX    TMP DP  RH WIND       PRES   REMARKS
MANKATO        FAIR      34  29  82 CALM      29.69
NEW ULM        CLEAR     27  19  74 NW14      29.73R WCI  15
ST JAMES       CLEAR     28  21  74 NW18      29.73R WCI  16
FAIRMONT       CLEAR     31  25  78 NW18      29.69R WCI  19
GLENCOE        FAIR      28  23  83 N10       29.71R WCI  18
FARIBAULT      FAIR      34  28  80 CALM      29.69R
OWATONNA       FAIR      36  30  80 W6        29.68R
WASECA         FAIR      34  30  86 SW6       29.70R WCI  29
ALBERT LEA     CLOUDY    37  28  70 S7        29.66S
$$
MNZ078>079-086>088-094>096-190500-
   Southeast Minnesota

CITY           SKY/WX    TMP DP  RH WIND       PRES   REMARKS
ROCHESTER      CLOUDY    36  30  79 S15G23    29.68R
RED WING       CLOUDY    37  27  65 E3        29.70R
STANTON        MOCLDY    37  31  79 CALM      29.68R
DODGE CENTER   MOCLDY    36  30  80 S12       29.67R
WINONA         CLOUDY    37  30  75 S5        29.71S
AUSTIN         CLOUDY    36  30  80 S5        29.67S
PRESTON        CLOUDY    36  29  75 S14       29.70S
$$
ABBREVIATIONS USED IN REMARKS
   TC - TEMPERATURES IN CELSIUS
  WCI - WIND CHILL INDEX
   HX - HEAT INDEX
  VSB - VISIBILITY
$$




USA.gov is the U.S. government's official web portal to all federal, state and local government web resources and services.